Location: Le Rocchette
(44.3500°N, 7.8333°E)
Time: 11:28:47
(UTC+00:00)

Cosmos 1782 - Pass Details

Date: 17 November 2019
Orbit: 535 x 554 km, 82.5° (Epoch: 12 December)

Event Time Altitude Azimuth Distance (km) Brightness Sun altitude
Rises 05:32:10 0° 357° (N) 2,721 6.2 -9.9°
Reaches altitude 10° 05:34:25 10° 3° (N) 1,820 5.3 -9.5°
Maximum altitude 05:38:17 46° 78° (ENE) 734 3.9 -8.8°
Drops below altitude 10° 05:42:05 10° 152° (SSE) 1,795 6.2 -8.2°
Sets 05:44:17 0° 159° (SSE) 2,679 7.0 -7.8°
